RYR771 LTBJ-EPKT

Flight info

Callsign RYR771
Flight time N/A
Altitude 34000
Route VEXOL1T VEXOL DCT ATFIR DCT ERDOM DCT LOMOS DCT NARKA DCT KEKED DCT LENOV LENOV5V
Aircraft B738/M-SDE2E3FGHIRWXY/LB1

Departure

Time 2026-04-29 19:00
Airport Adnan Menderes International Airport (LTBJ)

Arrival

Time N/A
Airport Katowice Wojciech Korfanty International Airport (EPKT)
Time Latitude Longitude Altitude Speed Heading
2026-04-29 18:36 38.29350 27.15037 387 ft 0 kts 256°
2026-04-29 18:53 38.29351 27.15039 399 ft 2 kts 256°
2026-04-29 18:53 38.29358 27.15070 399 ft 4 kts 249°
2026-04-29 18:54 38.29368 27.15102 397 ft 4 kts 239°
2026-04-29 18:54 38.29383 27.15129 396 ft 2 kts 226°
2026-04-29 18:54 38.29388 27.15134 396 ft 0 kts 226°
2026-04-29 18:56 38.29385 27.15131 396 ft 3 kts 221°
2026-04-29 18:56 38.29350 27.15139 398 ft 8 kts 131°
2026-04-29 18:56 38.29365 27.15222 396 ft 12 kts 69°
2026-04-29 18:57 38.29386 27.15351 399 ft 17 kts 89°
2026-04-29 18:57 38.29304 27.15459 392 ft 23 kts 169°
2026-04-29 18:57 38.29134 27.15510 394 ft 27 kts 166°
2026-04-29 18:57 38.28936 27.15571 391 ft 31 kts 166°
2026-04-29 18:58 38.28716 27.15639 387 ft 33 kts 166°
2026-04-29 18:58 38.28491 27.15701 386 ft 33 kts 168°
2026-04-29 18:58 38.28270 27.15771 381 ft 33 kts 166°
2026-04-29 18:58 38.28062 27.15840 376 ft 28 kts 165°
2026-04-29 18:59 38.27884 27.15889 373 ft 25 kts 166°
2026-04-29 18:59 38.27818 27.16045 371 ft 20 kts 75°
2026-04-29 18:59 38.27934 27.16084 372 ft 20 kts 344°
2026-04-29 18:59 38.28278 27.15983 382 ft 90 kts 347°
2026-04-29 19:00 38.29144 27.15728 400 ft 161 kts 348°
2026-04-29 19:00 38.30353 27.15392 947 ft 192 kts 349°
2026-04-29 19:00 38.31729 27.15023 1749 ft 200 kts 348°
2026-04-29 19:00 38.33046 27.14641 2930 ft 195 kts 349°
2026-04-29 19:01 38.34430 27.14249 3529 ft 217 kts 349°
2026-04-29 19:01 38.35982 27.13761 4100 ft 235 kts 347°
2026-04-29 19:01 38.37473 27.12930 5056 ft 239 kts 325°
2026-04-29 19:01 38.38550 27.11286 5886 ft 248 kts 299°
2026-04-29 19:02 38.39041 27.09163 6738 ft 254 kts 277°
2026-04-29 19:02 38.39065 27.07660 7233 ft 261 kts 271°
2026-04-29 19:02 38.38916 27.04414 8120 ft 281 kts 268°
2026-04-29 19:02 38.38776 27.01918 9172 ft 283 kts 268°
2026-04-29 19:03 38.38643 26.99406 10201 ft 285 kts 268°
2026-04-29 19:03 38.38521 26.96823 10794 ft 303 kts 268°
2026-04-29 19:03 38.38395 26.94014 11007 ft 332 kts 268°
2026-04-29 19:03 38.38260 26.90963 11226 ft 358 kts 268°
2026-04-29 19:04 38.38113 26.87714 11829 ft 369 kts 268°
2026-04-29 19:04 38.37964 26.84449 12674 ft 372 kts 268°
2026-04-29 19:04 38.37813 26.81148 13565 ft 375 kts 267°
2026-04-29 19:04 38.37660 26.77813 14313 ft 379 kts 267°
2026-04-29 19:05 38.37504 26.74445 15006 ft 383 kts 267°
2026-04-29 19:05 38.37347 26.71043 15719 ft 386 kts 267°
2026-04-29 19:05 38.37188 26.67615 16404 ft 389 kts 267°
2026-04-29 19:05 38.37026 26.64160 17057 ft 393 kts 267°
2026-04-29 19:06 38.36862 26.60669 17702 ft 396 kts 267°
2026-04-29 19:06 38.36696 26.57154 18322 ft 399 kts 267°
2026-04-29 19:06 38.36356 26.50036 19362 ft 405 kts 267°
2026-04-29 19:07 38.36183 26.46443 19885 ft 408 kts 267°
2026-04-29 19:07 38.36067 26.44051 20218 ft 409 kts 267°
2026-04-29 19:07 38.35830 26.39187 20865 ft 413 kts 267°
2026-04-29 19:07 38.35650 26.35524 21312 ft 416 kts 267°
2026-04-29 19:08 38.35468 26.31835 21755 ft 419 kts 267°
2026-04-29 19:08 38.35285 26.28125 22190 ft 421 kts 268°
2026-04-29 19:08 38.35518 26.24411 22563 ft 423 kts 285°
2026-04-29 19:08 38.36656 26.20964 22998 ft 425 kts 301°
2026-04-29 19:09 38.38483 26.17995 23414 ft 428 kts 316°
2026-04-29 19:09 38.40888 26.15743 23768 ft 432 kts 327°
2026-04-29 19:09 38.43476 26.13771 24101 ft 434 kts 328°
2026-04-29 19:09 38.46093 26.11838 24414 ft 436 kts 329°
2026-04-29 19:10 38.48724 26.09906 24736 ft 437 kts 328°
2026-04-29 19:10 38.51360 26.07959 25057 ft 439 kts 328°
2026-04-29 19:10 38.53998 26.05991 25365 ft 440 kts 328°
2026-04-29 19:10 38.56608 26.04027 25653 ft 442 kts 328°
2026-04-29 19:11 38.59256 26.02023 25942 ft 443 kts 328°
2026-04-29 19:11 38.61913 26.00003 26225 ft 445 kts 328°
2026-04-29 19:11 38.64569 25.97978 26509 ft 446 kts 327°
2026-04-29 19:11 38.67236 25.95941 26755 ft 447 kts 327°
2026-04-29 19:12 38.69911 25.93897 26995 ft 449 kts 327°
2026-04-29 19:12 38.72601 25.91840 27238 ft 450 kts 327°
2026-04-29 19:12 38.75296 25.89776 27477 ft 452 kts 327°
2026-04-29 19:12 38.77078 25.88412 27639 ft 452 kts 327°
2026-04-29 19:13 38.80692 25.85642 28037 ft 451 kts 327°
2026-04-29 19:13 38.83381 25.83580 28406 ft 449 kts 327°
2026-04-29 19:13 38.86058 25.81525 28760 ft 448 kts 327°
2026-04-29 19:13 38.88725 25.79475 29076 ft 447 kts 327°
2026-04-29 19:14 38.91395 25.77421 29381 ft 446 kts 327°
2026-04-29 19:14 38.94053 25.75375 29701 ft 445 kts 327°
2026-04-29 19:14 38.96702 25.73333 30002 ft 444 kts 327°
2026-04-29 19:14 38.99352 25.71289 30280 ft 443 kts 327°
2026-04-29 19:15 39.01991 25.69252 30552 ft 442 kts 327°
2026-04-29 19:15 39.04625 25.67217 30783 ft 442 kts 327°
2026-04-29 19:15 39.07259 25.65180 31007 ft 441 kts 327°
2026-04-29 19:15 39.09850 25.63175 31253 ft 440 kts 327°
2026-04-29 19:16 39.12472 25.61144 31513 ft 439 kts 327°
2026-04-29 19:16 39.15121 25.59090 31747 ft 438 kts 327°
2026-04-29 19:16 39.17728 25.57067 31971 ft 438 kts 327°
2026-04-29 19:16 39.20298 25.55070 32218 ft 436 kts 327°
2026-04-29 19:17 39.22900 25.53047 32457 ft 436 kts 327°
2026-04-29 19:17 39.25491 25.51032 32670 ft 435 kts 327°
2026-04-29 19:17 39.28082 25.49014 32892 ft 434 kts 327°
2026-04-29 19:17 39.30664 25.47001 33144 ft 433 kts 327°
2026-04-29 19:18 39.33237 25.44994 33388 ft 432 kts 327°
2026-04-29 19:18 39.34970 25.43641 33548 ft 431 kts 327°
2026-04-29 19:18 39.38366 25.40988 33815 ft 430 kts 327°
2026-04-29 19:18 39.40924 25.38987 34015 ft 430 kts 326°
2026-04-29 19:19 39.43486 25.36981 34064 ft 432 kts 326°
2026-04-29 19:19 39.48669 25.32916 34088 ft 439 kts 326°
2026-04-29 19:20 39.53923 25.28789 34093 ft 444 kts 326°
2026-04-29 19:20 39.59221 25.24622 34079 ft 447 kts 326°
2026-04-29 19:21 39.64546 25.20426 34070 ft 449 kts 326°
2026-04-29 19:21 39.69895 25.16203 34080 ft 450 kts 326°
2026-04-29 19:22 39.75246 25.11971 34083 ft 451 kts 326°
2026-04-29 19:22 39.80606 25.07724 34082 ft 451 kts 326°
2026-04-29 19:23 39.85906 25.03517 34070 ft 442 kts 326°
2026-04-29 19:23 39.88497 25.01461 34068 ft 430 kts 326°
2026-04-29 19:23 39.91039 24.99440 34078 ft 427 kts 326°
2026-04-29 19:24 39.96086 24.95417 34083 ft 424 kts 326°
2026-04-29 19:24 40.01108 24.91406 34082 ft 422 kts 326°
2026-04-29 19:25 40.06111 24.87405 34083 ft 421 kts 326°
2026-04-29 19:25 40.11106 24.83404 34091 ft 421 kts 326°
2026-04-29 19:26 40.16106 24.79392 34092 ft 422 kts 326°
2026-04-29 19:26 40.21109 24.75370 34091 ft 423 kts 326°
2026-04-29 19:27 40.26129 24.71329 34094 ft 424 kts 326°
2026-04-29 19:27 40.31154 24.67275 34097 ft 425 kts 325°
2026-04-29 19:28 40.36193 24.63204 34088 ft 426 kts 325°
2026-04-29 19:28 40.41233 24.59125 34094 ft 426 kts 325°
2026-04-29 19:29 40.46274 24.55038 34096 ft 426 kts 325°
2026-04-29 19:29 40.51310 24.50946 34089 ft 425 kts 325°
2026-04-29 19:30 40.56341 24.46852 34090 ft 425 kts 325°
2026-04-29 19:30 40.61358 24.42762 34092 ft 424 kts 325°
2026-04-29 19:31 40.66370 24.38669 34089 ft 423 kts 325°
2026-04-29 19:31 40.71334 24.34608 34093 ft 422 kts 325°
2026-04-29 19:32 40.75512 24.31184 34091 ft 422 kts 325°
2026-04-29 19:32 40.81298 24.26434 34094 ft 421 kts 324°
2026-04-29 19:33 40.85462 24.23009 34092 ft 420 kts 324°
2026-04-29 19:33 40.90424 24.18922 34096 ft 420 kts 324°
2026-04-29 19:34 40.95343 24.14862 34105 ft 419 kts 324°
2026-04-29 19:34 41.00287 24.10774 34105 ft 419 kts 324°
2026-04-29 19:35 41.05230 24.06680 34101 ft 419 kts 324°
2026-04-29 19:35 41.10169 24.02581 34099 ft 419 kts 324°
2026-04-29 19:36 41.15108 23.98476 34104 ft 419 kts 324°
2026-04-29 19:36 41.20045 23.94365 34106 ft 419 kts 324°
2026-04-29 19:37 41.24984 23.90244 34108 ft 419 kts 324°
2026-04-29 19:37 41.29922 23.86116 34105 ft 420 kts 324°
2026-04-29 19:38 41.34865 23.81979 34101 ft 419 kts 323°
2026-04-29 19:38 41.39960 23.78178 34107 ft 423 kts 333°
2026-04-29 19:39 41.45692 23.76131 34111 ft 431 kts 345°
2026-04-29 19:39 41.51617 23.74863 34109 ft 430 kts 345°
2026-04-29 19:40 41.57515 23.73616 34099 ft 429 kts 345°
2026-04-29 19:40 41.63396 23.72329 34103 ft 428 kts 345°
2026-04-29 19:41 41.69266 23.71021 34109 ft 428 kts 345°
2026-04-29 19:41 41.75139 23.69702 34115 ft 428 kts 345°
2026-04-29 19:42 41.81014 23.68381 34114 ft 429 kts 345°
2026-04-29 19:42 41.86901 23.67056 34112 ft 429 kts 345°
2026-04-29 19:43 41.92779 23.65731 34114 ft 429 kts 345°
2026-04-29 19:43 41.98631 23.64409 34119 ft 429 kts 344°
2026-04-29 19:44 42.04513 23.63078 34108 ft 428 kts 344°
2026-04-29 19:44 42.10418 23.61740 34112 ft 426 kts 344°
2026-04-29 19:45 42.16260 23.60413 34124 ft 425 kts 344°
2026-04-29 19:45 42.22054 23.59093 34126 ft 426 kts 344°
2026-04-29 19:46 42.27900 23.57761 34111 ft 426 kts 344°
2026-04-29 19:46 42.33747 23.56424 34117 ft 427 kts 344°
2026-04-29 19:47 42.39606 23.55082 34112 ft 427 kts 344°
2026-04-29 19:47 42.45472 23.53737 34118 ft 427 kts 344°
2026-04-29 19:48 42.51330 23.52393 34128 ft 427 kts 344°
2026-04-29 19:48 42.57183 23.51045 34141 ft 427 kts 344°
2026-04-29 19:49 42.63036 23.49695 34141 ft 427 kts 343°
2026-04-29 19:49 42.68893 23.48342 34137 ft 427 kts 343°
2026-04-29 19:50 42.74750 23.46986 34145 ft 427 kts 343°
2026-04-29 19:50 42.80613 23.45626 34131 ft 427 kts 343°
2026-04-29 19:51 42.86465 23.44266 34155 ft 427 kts 343°
2026-04-29 19:51 42.92324 23.42901 34139 ft 427 kts 343°
2026-04-29 19:52 42.98177 23.41536 34137 ft 427 kts 343°
2026-04-29 19:52 43.04036 23.40167 34146 ft 427 kts 343°
2026-04-29 19:53 43.09889 23.38796 34140 ft 427 kts 343°
2026-04-29 19:53 43.15733 23.37425 34151 ft 426 kts 343°
2026-04-29 19:54 43.24483 23.35367 34147 ft 424 kts 343°
2026-04-29 19:54 43.30291 23.33998 34142 ft 423 kts 343°
2026-04-29 19:55 43.36078 23.32630 34139 ft 421 kts 343°
2026-04-29 19:55 43.41802 23.31275 34136 ft 419 kts 343°
2026-04-29 19:56 43.47542 23.29913 34136 ft 418 kts 342°
2026-04-29 19:56 43.53282 23.28641 34152 ft 419 kts 346°
2026-04-29 19:57 43.58164 23.28009 34151 ft 421 kts 347°
2026-04-29 19:57 43.64942 23.27259 34146 ft 420 kts 347°
2026-04-29 19:58 43.70758 23.26561 34149 ft 420 kts 347°
2026-04-29 19:58 43.76577 23.25837 34152 ft 420 kts 347°
2026-04-29 19:59 43.82403 23.25099 34152 ft 420 kts 345°
2026-04-29 19:59 43.88001 23.23320 34149 ft 411 kts 336°
2026-04-29 20:00 43.93506 23.21154 34141 ft 412 kts 336°
2026-04-29 20:00 43.99025 23.18992 34148 ft 413 kts 336°
2026-04-29 20:01 44.04559 23.16846 34151 ft 413 kts 336°
2026-04-29 20:01 44.10106 23.14704 34148 ft 414 kts 336°
2026-04-29 20:02 44.15666 23.12557 34145 ft 415 kts 336°
2026-04-29 20:02 44.20288 23.10769 34152 ft 415 kts 336°
2026-04-29 20:03 44.26757 23.08261 34154 ft 415 kts 336°
2026-04-29 20:03 44.32321 23.06100 34151 ft 415 kts 336°
2026-04-29 20:04 44.37876 23.03938 34140 ft 413 kts 336°
2026-04-29 20:04 44.43403 23.01784 34154 ft 412 kts 336°
2026-04-29 20:05 44.48906 22.99633 34152 ft 409 kts 336°
2026-04-29 20:05 44.54381 22.97490 34146 ft 407 kts 336°
2026-04-29 20:06 44.59824 22.95354 34147 ft 405 kts 336°
2026-04-29 20:06 44.65243 22.93223 34143 ft 403 kts 336°
2026-04-29 20:07 44.70639 22.91097 34153 ft 402 kts 335°
2026-04-29 20:07 44.76019 22.88973 34156 ft 401 kts 335°
2026-04-29 20:08 44.79768 22.87490 34147 ft 402 kts 335°